Temperature
26 26 25 25 28 29 30 31 31 31 31 30 30 29 28 27 26 24 24 22 21 21 21 20 20 19 19 19 19 19 19 19 19 19 19 19 19 19 18 18 18 18 18 18 18 18 18 18 18
26 26 26 28 28 29 29 31 30 31 31 30 30 29 28 27 25 24 23 22 21 20 20 20 20 19 19 19 19 19 19 19 19 19 19 19 18 18 18 18 18 18 18 18 18 18 18 18 18
27 26 28 30 30 30 30 31 31 31 31 30 29 28 27 26 25 24 23 22 21 20 20 20 20 19 19 19 19 19 19 19 19 19 19 18 18 18 18 18 18 18 18 18 18 18 18 18 18
26 29 30 31 31 32 32 32 32 32 31 30 29 27 26 26 24 23 23 22 21 20 20 20 20 20 19 19 19 19 19 19 19 19 18 18 18 18 18 18 18 18 18 18 18 18 18 18 18
28 30 31 31 32 33 33 33 32 32 31 30 28 26 25 25 24 23 23 22 21 20 21 21 20 20 19 19 19 19 19 19 19 18 18 18 18 18 18 18 18 18 18 18 18 18 18 18 18
31 32 31 31 32 33 33 33 32 32 31 29 28 26 25 24 24 24 23 23 22 21 21 21 20 20 19 19 19 19 19 19 19 18 18 18 18 18 18 18 18 18 18 18 18 18 18 18 18
32 32 32 32 32 32 33 33 32 32 31 30 28 27 25 24 24 24 24 23 22 21 21 21 20 20 20 19 19 19 19 19 19 18 19 19 19 18 18 18 18 18 18 18 18 18 18 18 18
33 33 33 33 32 32 33 33 32 31 31 30 29 27 25 24 24 24 24 23 23 21 21 20 20 20 20 20 19 19 19 19 19 19 19 19 18 18 18 18 18 18 18 18 18 18 18 18 18
33 33 32 33 33 33 33 33 31 31 30 30 29 27 25 24 24 24 24 23 23 22 21 21 20 19 19 19 19 19 19 19 19 19 18 18 18 18 18 18 18 18 18 18 18 18 18 18 18
34 32 33 34 34 34 34 33 32 31 30 28 27 26 25 24 24 24 24 23 23 22 22 21 21 20 20 19 19 19 19 19 19 18 18 18 18 18 18 18 18 18 18 18 18 18 18 18 18
34 33 34 35 34 34 34 33 33 32 30 28 26 25 25 24 24 24 24 23 22 22 22 21 21 20 20 20 19 19 19 19 18 18 18 18 18 18 18 18 19 18 18 18 18 18 18 18 18
34 34 35 35 34 34 34 34 33 32 30 28 26 25 25 24 24 24 24 23 22 22 22 22 21 20 20 20 20 19 19 19 19 19 19 18 18 18 18 18 18 18 18 18 18 18 18 18 18
34 35 35 34 34 34 34 34 33 32 30 28 26 25 25 25 25 24 24 23 22 22 22 21 21 20 20 20 20 20 19 19 19 19 19 19 19 18 18 18 18 18 18 18 18 18 18 18 18
35 35 35 35 34 34 34 34 33 31 30 28 27 26 26 25 25 25 24 23 22 22 21 21 21 20 20 20 20 20 20 19 19 19 19 19 19 18 18 18 18 18 18 18 18 18 18 18 18
34 34 35 35 35 34 33 32 33 31 30 29 28 27 26 26 25 25 24 23 22 22 21 21 20 20 20 20 20 20 20 19 19 19 19 19 19 19 18 18 18 18 18 18 18 18 18 18 18
34 34 33 34 35 34 32 30 32 31 31 30 28 27 27 26 26 25 24 23 22 22 21 21 20 20 20 20 20 20 20 20 20 19 19 19 19 19 19 18 18 18 18 18 18 18 18 18 18
33 33 33 34 35 35 33 31 32 32 31 30 29 28 27 26 26 25 24 23 22 22 21 21 21 20 20 20 20 20 20 20 19 19 19 19 19 19 19 19 18 18 18 18 18 18 18 18 18
33 33 33 33 34 34 33 32 33 32 32 31 30 29 28 27 26 25 24 23 22 22 21 21 21 20 20 20 20 20 20 19 19 19 19 19 19 19 19 19 19 18 18 18 18 18 18 18 19
34 34 33 34 35 34 33 33 33 33 32 32 31 30 28 27 26 25 24 24 22 22 21 21 21 21 20 20 20 20 20 19 19 19 19 19 19 19 19 18 18 19 18 18 18 18 18 18 19
33 33 33 33 34 34 33 33 34 33 33 32 31 30 29 28 27 25 24 24 23 22 21 21 21 21 21 20 20 20 19 19 19 19 19 19 19 19 19 19 18 18 18 18 18 18 18 18 18
33 33 33 33 33 33 33 32 33 33 33 32 32 31 30 28 27 26 25 24 23 22 22 21 21 21 21 20 20 20 19 19 19 19 19 19 19 19 19 18 18 18 18 18 18 18 18 18 18
32 34 33 33 32 32 33 31 32 32 32 32 32 32 31 30 28 26 25 24 23 22 22 22 22 21 21 20 20 20 19 19 19 19 19 19 19 19 19 19 18 18 18 18 18 18 18 18 18
33 34 33 33 32 32 32 32 32 32 31 32 32 32 31 30 29 27 26 25 24 23 22 22 21 21 21 20 20 20 19 19 19 19 19 19 19 19 18 18 18 18 18 18 18 18 18 18 18
34 33 33 33 32 30 31 31 31 32 31 31 32 31 30 30 28 27 26 25 24 23 22 21 21 21 21 20 20 20 20 19 19 19 19 19 19 19 19 18 18 18 18 18 18 18 18 18 18
33 31 30 30 30 30 32 32 31 32 32 32 32 31 30 29 28 27 26 25 24 23 22 22 21 21 21 20 20 20 20 19 19 19 19 18 18 18 18 18 18 18 18 18 18 18 18 18 18
32 31 30 29 30 31 31 31 32 33 33 32 32 31 30 29 28 27 26 25 24 23 22 22 21 21 20 20 20 20 20 19 19 19 19 18 18 18 18 18 18 18 18 18 18 18 18 18 18
32 32 33 32 31 30 31 31 32 33 32 32 32 31 30 29 28 27 26 25 24 23 22 22 21 20 20 20 20 19 19 19 19 19 19 18 18 18 18 18 18 18 18 18 17 17 17 17 17
33 33 32 31 29 29 30 30 30 31 32 32 32 31 30 29 28 27 26 25 24 23 22 21 21 20 20 20 19 19 19 19 19 18 18 18 18 18 18 18 18 18 17 17 17 17 17 17 17
31 32 31 31 31 30 29 30 32 31 31 32 32 31 30 29 28 27 26 24 23 23 22 21 21 20 20 20 19 19 19 19 18 18 18 18 18 18 18 18 17 17 17 17 17 17 17 17 17
32 32 31 30 30 30 30 30 33 32 32 32 31 30 29 28 27 26 25 24 23 22 22 21 20 20 20 19 19 19 19 18 18 18 18 18 18 18 17 17 17 17 17 17 17 17 17 17 17
Wind_Speed
9 11 9 6 2 4 14 16 15 15 16 15 15 16 19 17 13 15 16 22 22 19 18 17 16 16 16 15 15 15 15 15 15 15 15 15 15 15 15 15 16 16 17 16 16 16 16 16 15
10 12 8 3 2 9 14 14 15 15 14 14 17 20 21 19 19 18 18 20 21 19 18 17 17 16 15 15 15 15 14 14 14 14 14 14 14 14 14 14 15 15 16 16 16 16 16 15 13
11 14 4 1 8 12 14 13 13 14 13 15 18 18 15 16 18 15 18 21 20 19 19 18 17 16 15 15 14 14 14 14 14 14 13 13 13 14 14 14 14 14 15 15 15 15 14 13 12
8 5 2 4 13 14 14 13 13 13 13 14 16 13 14 15 17 19 20 21 21 19 19 18 17 16 15 14 14 13 13 13 13 13 13 13 13 13 13 13 13 14 14 14 14 14 13 12 10
8 3 2 9 14 14 13 13 13 13 15 17 18 17 15 17 20 19 18 19 19 20 19 18 17 16 15 14 13 13 12 12 12 12 12 12 12 12 12 12 13 13 13 13 13 12 11 10 8
6 2 4 9 13 13 12 12 14 15 14 18 19 18 14 17 17 16 17 17 19 20 19 18 16 15 14 13 12 12 12 12 11 11 11 11 11 11 12 12 12 12 12 12 12 11 10 8 5
7 3 6 10 12 13 12 12 13 13 13 14 17 16 13 16 15 15 14 15 18 20 18 17 16 15 14 13 12 11 11 11 11 11 11 10 10 11 11 11 11 11 11 11 10 10 9 7 4
5 3 5 10 12 13 12 13 12 13 12 11 13 12 16 17 15 14 13 13 16 17 17 16 17 16 14 13 12 12 11 10 10 10 10 10 10 10 11 11 10 10 10 10 9 9 7 5 2
5 2 6 10 10 12 11 13 12 12 11 12 13 19 21 20 17 15 13 12 12 13 13 14 15 15 15 15 14 13 12 10 10 9 9 10 9 10 10 11 11 9 9 8 8 8 7 5 4
1 2 7 8 9 10 10 11 11 11 12 14 17 20 21 19 16 15 13 12 11 11 11 11 11 11 12 13 14 13 12 12 10 9 11 9 6 8 11 13 10 9 8 7 8 8 8 7 6
1 3 6 8 8 6 8 9 8 11 13 17 18 20 20 18 15 14 13 12 11 9 9 11 11 8 8 8 10 8 9 10 9 9 8 7 6 8 11 10 9 9 8 7 8 9 9 8 6
1 1 3 6 6 5 7 9 10 11 15 19 20 20 19 18 16 14 13 12 11 8 8 10 10 7 4 5 5 7 7 7 7 8 7 6 3 3 5 5 8 9 7 6 6 6 5 4 3
2 2 3 4 4 4 5 7 10 13 18 20 20 19 18 17 15 13 13 12 11 8 7 8 8 7 5 3 1 3 4 5 7 8 6 6 4 3 4 2 3 4 5 6 3 3 2 2 2
3 3 3 4 4 4 4 6 9 13 17 19 19 18 17 16 15 14 13 11 11 9 8 8 8 7 5 4 1 1 2 4 5 6 7 6 3 4 4 3 2 3 3 4 4 3 2 2 2
5 6 6 6 6 5 3 2 7 14 16 17 17 17 16 15 14 13 13 12 12 10 8 8 8 8 6 6 5 5 4 5 4 5 7 6 5 4 3 3 3 3 3 2 2 2 2 3 3
9 10 9 8 7 6 5 4 6 12 14 15 15 14 15 13 14 13 13 11 11 10 9 8 8 10 7 5 4 3 4 4 4 6 7 6 5 6 3 2 3 4 4 3 2 3 3 3 2
12 12 8 7 8 6 6 6 9 11 12 13 14 15 15 14 14 13 14 13 11 10 9 8 6 8 8 7 5 4 2 1 3 5 6 7 7 7 5 3 3 4 3 2 4 3 2 2 3
10 8 7 6 7 6 5 6 9 10 11 12 13 15 16 16 14 14 14 13 11 10 10 9 7 7 7 6 5 4 4 3 4 4 5 8 8 9 7 4 5 5 3 3 3 1 2 2 3
12 8 4 4 3 4 5 6 7 9 10 11 12 14 15 15 15 14 14 14 13 11 10 9 8 7 6 5 5 5 5 4 4 5 7 9 9 9 7 4 4 5 4 4 4 3 4 4 3
12 11 6 4 4 6 6 7 7 8 9 9 11 12 15 15 15 15 14 14 13 12 11 10 9 9 8 5 4 4 4 4 5 5 5 8 9 9 9 6 5 6 4 5 5 4 3 3 3
13 12 7 6 5 7 8 9 9 8 6 8 10 12 14 17 17 17 15 14 14 13 12 11 10 9 9 7 5 4 3 3 3 3 3 5 7 8 7 7 6 5 6 6 6 6 6 4 4
13 10 7 7 7 8 10 8 8 9 8 9 9 11 13 15 17 17 16 15 14 13 13 10 10 9 8 7 6 6 5 5 4 3 3 4 5 7 8 7 7 6 5 5 7 7 6 5 4
11 8 9 10 10 12 11 10 6 9 9 9 9 9 10 11 13 15 16 14 13 13 12 11 10 9 8 7 7 6 6 4 3 2 3 4 4 5 7 6 5 5 5 6 6 5 5 5 5
10 9 9 10 11 13 12 11 5 6 6 6 7 6 8 8 9 12 13 12 11 11 11 11 10 8 8 7 7 6 6 4 3 3 3 3 3 4 6 7 5 6 5 5 5 5 6 6 6
12 10 8 9 10 11 12 10 4 5 6 6 6 7 8 9 10 11 12 12 11 10 10 10 10 8 7 7 6 5 5 4 4 3 3 3 3 3 5 6 5 5 5 5 5 5 6 6 7
15 16 11 9 9 8 9 8 6 8 7 6 4 6 10 11 11 11 11 11 10 10 9 9 9 8 7 7 6 5 4 3 2 3 2 3 3 4 4 4 5 5 6 6 5 5 6 5 5
16 16 17 15 15 10 6 6 6 8 8 7 7 7 8 10 10 11 12 11 10 10 9 8 8 7 7 6 5 4 4 3 2 2 3 2 2 3 2 3 4 4 5 5 4 4 5 4 4
17 15 11 13 11 11 7 8 7 11 10 8 8 8 8 9 10 10 11 10 10 9 9 8 7 6 6 5 4 4 4 3 1 1 1 1 1 2 2 1 2 3 4 3 3 3 4 4 3
17 17 13 10 11 11 8 4 2 9 8 9 8 7 8 8 8 9 9 9 9 8 9 8 7 6 5 4 3 2 2 2 1 1 1 1 1 1 2 2 1 1 1 1 2 2 2 2 2
17 18 16 11 10 10 10 3 3 7 7 7 8 8 9 9 9 9 10 10 9 8 8 8 7 6 5 4 3 2 2 2 1 1 1 1 2 2 2 2 2 2 2 2 0 0 1 0 0
Wind_Direction
254 249 240 256 253 74 74 71 70 71 68 60 57 71 65 61 81 98 112 112 114 115 119 116 111 108 107 105 102 99 96 94 93 92 91 90 90 91 92 91 92 92 93 93 94 94 94 95 97
271 259 247 250 91 80 77 73 74 74 78 77 70 73 74 76 90 104 111 115 118 121 122 116 114 111 109 107 104 101 99 96 94 92 92 92 92 93 94 93 93 94 94 94 94 95 96 97 100
266 259 260 175 74 79 83 82 84 83 84 86 78 67 73 93 101 110 120 120 116 112 113 116 117 114 112 110 107 104 103 100 97 94 92 92 93 94 94 94 95 96 97 96 96 97 97 98 99
267 251 213 88 77 80 86 92 93 92 88 86 88 81 78 94 108 119 125 119 117 120 119 120 120 117 115 113 110 108 107 104 100 98 96 95 95 94 94 96 98 99 99 99 99 99 99 100 101
253 256 101 84 85 84 84 86 90 85 84 84 89 95 92 100 113 124 125 125 127 121 121 125 124 121 120 117 114 112 110 108 105 104 101 100 99 97 96 98 99 101 101 102 102 102 102 102 102
271 268 95 91 90 90 91 90 95 93 96 103 104 103 103 115 124 132 131 132 126 124 123 127 128 127 126 124 121 118 115 114 112 110 108 106 104 104 102 101 103 104 105 104 106 106 105 105 102
276 305 103 99 96 91 86 90 92 96 94 99 110 111 123 131 135 134 132 128 125 124 129 137 138 135 133 132 130 127 125 123 121 120 119 119 117 115 110 106 106 106 108 110 112 113 112 111 114
296 333 94 100 98 94 92 90 91 95 89 106 121 121 137 138 142 133 130 127 127 131 138 144 145 145 147 142 140 138 136 135 135 134 135 136 134 130 127 119 114 115 116 119 123 125 127 130 154
285 312 72 86 95 105 103 101 100 102 95 73 81 120 136 142 143 139 137 133 129 131 138 148 146 153 156 150 149 150 149 151 153 155 159 164 164 150 146 124 127 127 129 132 138 144 149 161 202
296 52 82 82 89 101 109 112 119 114 104 91 95 118 133 144 147 149 148 143 137 137 143 144 142 148 156 149 152 162 161 165 179 170 176 188 175 145 135 137 142 146 149 155 164 171 179 195 207
35 67 88 97 90 101 115 116 115 116 119 123 129 138 144 149 154 156 154 149 143 153 150 142 133 146 151 140 158 162 159 163 178 175 171 167 157 146 142 153 157 165 174 188 179 195 213 210 211
82 59 75 89 99 101 98 98 92 97 115 130 141 149 152 157 162 162 157 152 150 166 157 141 135 141 126 132 143 152 157 165 162 163 175 161 158 153 148 158 166 176 185 193 195 209 212 202 201
228 189 124 123 120 104 102 106 108 107 117 128 142 152 158 162 163 163 156 153 151 163 161 131 127 123 124 107 150 154 152 157 152 158 167 162 165 160 149 144 164 187 184 177 205 220 190 177 210
259 237 185 160 152 159 143 130 126 123 128 135 145 155 164 165 166 161 156 154 157 167 164 140 138 136 141 149 182 200 162 144 155 162 163 177 167 144 152 166 191 209 203 191 191 200 181 193 227
260 238 221 202 191 167 132 146 144 138 139 145 152 162 165 167 165 163 162 162 165 169 161 150 156 153 166 176 193 197 194 179 165 154 154 175 173 157 173 176 198 211 198 196 207 226 219 212 213
237 234 224 204 196 158 151 194 171 153 152 153 157 165 167 166 169 167 163 166 164 166 157 166 179 162 171 190 206 217 207 181 163 161 164 182 180 174 201 197 205 211 198 190 220 239 227 231 230
230 231 217 197 185 170 175 183 174 166 164 161 165 170 171 170 175 168 168 168 166 160 158 170 183 160 172 185 196 234 229 200 183 180 175 180 191 194 211 218 199 218 217 208 229 201 225 248 250
239 232 208 197 179 189 182 164 168 173 182 173 173 174 171 174 179 172 171 169 165 161 162 169 181 169 172 180 188 225 221 203 205 204 190 180 196 204 212 221 205 224 219 218 237 233 218 251 262
268 266 228 184 178 218 205 187 190 183 189 177 176 177 173 177 178 172 173 172 169 165 166 173 184 176 179 188 192 208 216 212 210 210 198 197 208 207 205 236 201 223 225 217 226 223 233 233 237
263 265 248 212 194 241 232 217 200 191 191 183 184 181 177 175 175 173 175 176 171 170 173 178 185 181 187 195 200 213 214 213 212 219 196 202 210 212 209 212 222 217 220 218 230 226 239 252 223
250 254 251 233 205 241 252 240 210 197 197 193 191 187 182 178 177 176 180 181 177 175 179 185 184 183 190 194 196 222 219 236 236 220 209 216 213 218 229 208 222 225 223 216 216 219 220 238 250
244 250 252 255 248 252 244 252 204 191 198 202 201 191 187 182 179 177 181 182 181 179 181 178 177 181 185 194 204 213 218 225 230 220 214 216 222 227 229 223 223 226 234 229 220 219 219 224 243
246 259 254 246 246 255 252 256 219 188 200 204 200 196 182 177 176 175 178 178 181 180 176 175 175 180 184 195 206 216 231 234 239 216 215 221 224 232 238 230 226 227 235 235 234 229 219 219 228
241 248 253 254 255 252 251 258 237 191 193 205 203 183 159 158 167 170 169 169 174 172 172 176 172 177 184 195 205 210 230 235 241 236 223 227 232 232 238 232 219 223 231 235 235 230 225 227 234
225 229 226 231 234 244 240 244 222 172 171 181 188 158 149 152 163 165 164 165 167 167 168 166 164 176 184 192 203 208 221 229 233 243 240 239 250 245 240 237 222 225 227 227 231 229 236 232 233
215 227 232 240 243 241 234 236 208 165 151 155 151 140 148 157 159 156 153 156 160 160 160 158 162 173 180 187 194 201 211 222 228 238 247 252 252 255 254 235 228 229 231 231 224 234 231 234 237
217 225 240 253 269 272 240 230 185 156 159 160 153 153 156 156 151 153 152 156 156 158 158 155 154 162 174 183 185 189 199 213 219 219 231 252 263 269 268 235 228 228 230 235 230 232 235 226 229
236 230 237 250 265 270 253 223 208 169 172 171 167 162 154 150 150 149 147 146 148 154 145 141 145 152 159 169 183 182 189 196 204 246 259 305 312 318 314 270 237 230 230 226 229 234 227 220 233
221 231 239 251 257 262 259 252 207 158 166 171 164 155 150 140 138 133 133 133 135 137 136 136 138 140 145 154 161 145 150 161 185 228 286 49 44 352 340 3 2 328 281 232 218 237 233 221 247
225 226 230 238 251 266 271 265 95 129 151 160 149 143 137 132 138 132 135 131 131 138 136 134 135 137 141 139 138 136 135 135 135 96 41 63 68 52 29 32 41 29 24 16 26 352 19 23 296
Height
1484 1483 1483 1486 1485 1486 1487 1482 1480 1481 1483 1485 1486 1488 1494 1497 1504 1518 1522 1523 1525 1527 1529 1531 1533 1534 1535 1536 1537 1538 1539 1540 1541 1541 1542 1543 1544 1544 1545 1546 1547 1547 1548 1549 1550 1551 1552 1553 1554
1484 1484 1487 1486 1487 1496 1494 1483 1484 1484 1486 1489 1491 1494 1499 1505 1510 1517 1522 1526 1528 1529 1531 1533 1535 1536 1537 1539 1540 1541 1542 1543 1543 1544 1545 1546 1546 1547 1548 1549 1549 1550 1551 1552 1553 1553 1554 1555 1556
1485 1486 1487 1482 1485 1492 1493 1484 1484 1486 1488 1491 1495 1500 1505 1511 1516 1520 1525 1528 1530 1532 1533 1535 1536 1538 1540 1541 1542 1543 1544 1545 1546 1547 1548 1548 1549 1550 1551 1551 1552 1553 1554 1554 1555 1556 1557 1558 1559
1487 1486 1484 1482 1488 1483 1483 1483 1484 1487 1490 1492 1497 1506 1512 1516 1519 1523 1527 1530 1531 1533 1535 1537 1538 1540 1542 1543 1544 1545 1546 1547 1548 1549 1550 1551 1552 1552 1553 1554 1555 1555 1556 1557 1557 1558 1559 1560 1561
1489 1485 1483 1485 1484 1481 1480 1483 1486 1488 1492 1496 1502 1511 1517 1520 1523 1526 1529 1532 1534 1535 1536 1539 1540 1542 1543 1545 1546 1547 1549 1550 1550 1551 1552 1553 1554 1555 1555 1556 1557 1557 1558 1559 1560 1560 1561 1562 1563
1487 1481 1488 1491 1486 1481 1482 1485 1488 1491 1495 1499 1506 1513 1520 1524 1526 1529 1531 1534 1536 1537 1538 1540 1542 1544 1545 1547 1548 1549 1550 1551 1552 1553 1554 1555 1556 1556 1557 1558 1559 1559 1560 1561 1562 1563 1563 1564 1566
1486 1481 1485 1486 1486 1485 1484 1486 1489 1492 1496 1499 1505 1513 1521 1526 1528 1531 1533 1536 1538 1539 1540 1542 1544 1545 1547 1548 1550 1551 1552 1553 1554 1555 1556 1557 1558 1558 1559 1560 1561 1561 1562 1563 1564 1565 1565 1567 1568
1483 1481 1482 1483 1486 1488 1486 1488 1491 1495 1499 1502 1505 1511 1521 1526 1529 1532 1535 1538 1540 1541 1542 1544 1545 1547 1548 1550 1551 1553 1554 1555 1556 1557 1558 1559 1560 1560 1561 1562 1563 1563 1564 1565 1566 1567 1568 1569 1570
1482 1484 1488 1484 1485 1486 1486 1490 1495 1497 1500 1503 1505 1510 1519 1525 1530 1533 1536 1539 1541 1543 1545 1546 1548 1549 1550 1551 1553 1554 1555 1556 1557 1559 1560 1560 1561 1562 1563 1564 1564 1565 1566 1567 1568 1569 1570 1571 1572
1481 1487 1485 1480 1480 1483 1486 1489 1493 1497 1502 1508 1512 1517 1522 1526 1530 1533 1536 1539 1542 1544 1546 1548 1550 1551 1553 1554 1554 1555 1556 1557 1559 1560 1561 1562 1563 1564 1565 1565 1566 1567 1568 1568 1569 1570 1571 1572 1573
1479 1482 1479 1480 1482 1484 1485 1488 1491 1495 1501 1509 1514 1519 1523 1527 1531 1534 1537 1539 1542 1545 1547 1549 1550 1552 1554 1555 1556 1557 1558 1559 1560 1561 1562 1564 1565 1565 1566 1566 1567 1568 1569 1569 1570 1571 1572 1574 1574
1481 1481 1480 1481 1484 1485 1486 1488 1492 1495 1502 1508 1513 1518 1523 1527 1530 1533 1536 1539 1542 1545 1547 1549 1550 1552 1554 1556 1557 1558 1559 1560 1561 1562 1563 1564 1565 1566 1567 1567 1568 1569 1569 1570 1571 1572 1573 1574 1575
1481 1481 1481 1483 1485 1486 1488 1490 1494 1497 1503 1508 1514 1519 1523 1526 1530 1533 1536 1539 1542 1544 1547 1548 1549 1551 1553 1555 1556 1558 1560 1560 1561 1562 1563 1564 1565 1566 1567 1568 1568 1569 1570 1571 1571 1572 1573 1574 1575
1482 1481 1481 1483 1485 1487 1489 1491 1494 1499 1504 1509 1514 1519 1523 1526 1529 1532 1536 1539 1541 1544 1546 1547 1548 1550 1552 1553 1555 1557 1559 1560 1561 1562 1562 1563 1565 1566 1566 1567 1568 1569 1570 1571 1571 1572 1573 1573 1574
1483 1483 1482 1482 1483 1485 1490 1495 1495 1499 1503 1508 1513 1518 1522 1525 1528 1531 1534 1537 1540 1543 1545 1546 1548 1549 1551 1553 1554 1556 1558 1559 1560 1561 1561 1562 1564 1564 1566 1566 1567 1568 1569 1570 1571 1571 1572 1573 1573
1483 1484 1488 1481 1480 1484 1494 1507 1496 1498 1502 1507 1511 1516 1520 1524 1527 1530 1533 1536 1539 1541 1543 1545 1547 1548 1549 1551 1553 1555 1556 1557 1558 1559 1560 1561 1562 1563 1564 1565 1566 1567 1568 1569 1570 1570 1571 1572 1573
1484 1489 1487 1483 1478 1481 1489 1500 1495 1496 1500 1504 1509 1513 1518 1522 1526 1529 1532 1534 1537 1539 1541 1543 1546 1547 1548 1550 1551 1553 1554 1555 1556 1557 1558 1559 1560 1561 1562 1563 1564 1565 1567 1568 1568 1569 1570 1571 1571
1488 1484 1484 1485 1479 1481 1487 1492 1492 1494 1496 1501 1505 1510 1515 1519 1523 1527 1530 1533 1535 1538 1539 1541 1544 1545 1546 1548 1549 1551 1553 1554 1555 1556 1557 1557 1558 1559 1560 1561 1562 1563 1564 1565 1566 1567 1568 1568 1569
1479 1480 1484 1482 1477 1482 1486 1489 1489 1491 1493 1497 1502 1506 1511 1516 1521 1524 1528 1531 1533 1535 1537 1538 1540 1542 1544 1545 1547 1548 1550 1552 1553 1554 1554 1555 1555 1556 1557 1558 1559 1560 1562 1562 1564 1564 1565 1566 1567
1480 1484 1485 1483 1479 1483 1486 1487 1484 1487 1490 1494 1498 1503 1507 1513 1517 1521 1525 1528 1530 1532 1534 1536 1537 1539 1541 1543 1545 1547 1549 1550 1550 1551 1551 1552 1553 1553 1554 1555 1556 1557 1558 1559 1561 1562 1562 1563 1565
1483 1484 1485 1486 1482 1483 1486 1491 1486 1485 1488 1491 1494 1498 1503 1508 1513 1517 1521 1525 1527 1529 1531 1534 1535 1537 1539 1541 1543 1545 1546 1547 1548 1548 1549 1549 1550 1550 1551 1552 1553 1554 1556 1556 1557 1558 1559 1560 1561
1487 1477 1480 1484 1492 1495 1489 1503 1488 1485 1487 1489 1492 1494 1498 1503 1508 1513 1517 1521 1524 1526 1529 1531 1533 1535 1537 1539 1540 1542 1543 1544 1545 1546 1546 1546 1547 1547 1548 1549 1550 1551 1552 1553 1554 1554 1556 1557 1558
1480 1475 1479 1483 1489 1494 1489 1497 1492 1482 1488 1488 1489 1491 1494 1500 1505 1509 1514 1518 1522 1525 1527 1529 1531 1533 1534 1536 1538 1539 1541 1542 1543 1543 1543 1543 1543 1544 1544 1545 1546 1547 1548 1549 1550 1551 1552 1553 1554
1476 1480 1482 1483 1488 1505 1494 1497 1498 1485 1487 1487 1487 1489 1493 1498 1503 1507 1511 1515 1520 1522 1525 1527 1529 1530 1532 1534 1535 1537 1538 1539 1540 1540 1540 1540 1540 1541 1541 1541 1542 1543 1544 1545 1546 1547 1548 1549 1550
1479 1491 1506 1511 1509 1505 1484 1491 1492 1479 1478 1482 1485 1488 1492 1497 1503 1506 1510 1513 1517 1520 1522 1525 1526 1528 1530 1532 1533 1534 1535 1536 1537 1537 1538 1538 1537 1537 1537 1538 1538 1539 1540 1541 1542 1543 1544 1545 1546
1481 1487 1506 1517 1511 1499 1488 1492 1483 1473 1476 1481 1485 1487 1492 1497 1501 1505 1509 1512 1515 1518 1521 1523 1525 1527 1528 1530 1531 1532 1533 1534 1535 1535 1535 1535 1535 1534 1534 1534 1535 1535 1536 1537 1538 1539 1540 1540 1541
1479 1482 1478 1488 1492 1498 1492 1485 1475 1472 1476 1480 1484 1488 1492 1496 1500 1504 1508 1511 1514 1518 1520 1522 1524 1525 1527 1528 1530 1531 1532 1532 1533 1533 1533 1533 1532 1532 1532 1532 1532 1532 1533 1533 1534 1535 1536 1537 1537
1470 1473 1480 1489 1504 1511 1499 1492 1487 1477 1478 1479 1483 1487 1491 1495 1499 1503 1507 1510 1514 1517 1519 1521 1523 1524 1526 1528 1529 1530 1530 1531 1531 1531 1531 1531 1530 1530 1530 1530 1529 1529 1530 1531 1531 1532 1533 1533 1534
1474 1477 1478 1481 1485 1502 1510 1498 1468 1471 1475 1477 1482 1486 1490 1494 1499 1503 1507 1510 1514 1517 1518 1520 1523 1524 1526 1527 1528 1528 1529 1529 1530 1530 1529 1529 1529 1528 1528 1528 1528 1527 1528 1529 1529 1529 1530 1530 1531
1465 1471 1475 1491 1493 1488 1495 1494 1466 1469 1474 1477 1481 1486 1491 1495 1499 1504 1507 1510 1513 1515 1518 1520 1522 1524 1525 1526 1526 1527 1528 1528 1528 1528 1528 1528 1527 1527 1527 1527 1527 1527 1527 1527 1527 1527 1528 1528 1528